Home   Weather   Midway   Past weeks

Flag for US Minor Outlying Islands Past Weather in Midway, US Minor Outlying Islands — Yesterday and Last 2 Weeks

77 °F

Passing clouds.

Feels Like: 79 °F
Forecast: 76 / 83 °F
Wind: 6 mph from Southeast

Location: Midway Island Naval Air Facility

Current Time: Oct 24, 2016 at 11:28:18 PM

Latest Report: Oct 24, 2016 at 10:56 PM

Visibility: 10 mi

Pressure: 30.21 "Hg

Humidity: 77%

Dew Point: 69 °F

Location of MidwayLocation

Past Weather in Midway — Graph


Midway Temperature Yesterday

Maximum temperature yesterday: 85 °F (at 12:56 PM)
Minimum temperature yesterday: 78 °F (at 4:56 AM)
Average temperature yesterday: 80 °F

High & Low Weather Summary for the Past Weeks

High88 °F (Oct 13, 2:11 PM)91% (Oct 20, 5:56 AM)30.25 "Hg (Oct 20, 5:56 AM)
Low75 °F (Oct 20, 3:56 AM)55% (Oct 10, 12:56 PM)30.03 "Hg (Oct 17, 3:56 PM)
Average80 °F75%30.15 "Hg
* Reported Oct 9 9:56 PM — Oct 24 9:56 PM, Midway, Weather by CustomWeather, © 2016

Note: Actual official high and low records may vary slightly from our data, if they occured in-between our weather recording intervals... More about our weather records


Midway Weather History for the Previous 24 Hours

Scroll right to see more
Time TempWeatherWind HumidityBarometerVisibility
9:56 PM
Mon, Oct 24
77 °FPassing clouds.7 mph77%30.20 "Hg10 mi
9:25 PM75 °FPassing clouds.8 mph83%30.20 "Hg10 mi
8:56 PM75 °FPassing clouds.6 mph76%30.20 "Hg10 mi
7:56 PM75 °FClear.7 mph74%30.18 "Hg10 mi
6:56 PM78 °FClear.7 mph69%30.17 "Hg10 mi
5:56 PM79 °FSunny.9 mph67%30.15 "Hg10 mi
4:56 PM81 °FSunny.10 mph67%30.14 "Hg10 mi
11:56 AM84 °FSunny.16 mph63%30.19 "Hg10 mi
10:56 AM83 °FSunny.17 mph63%30.21 "Hg10 mi
9:56 AM82 °FSunny.16 mph67%30.22 "Hg10 mi
8:56 AM81 °FSunny.18 mph69%30.22 "Hg10 mi
7:56 AM78 °FSunny.17 mph71%30.21 "Hg10 mi
6:56 AM77 °FSunny.15 mph71%30.19 "Hg10 mi
5:56 AM77 °FPassing clouds.15 mph71%30.18 "Hg10 mi
4:56 AM77 °FClear.17 mph74%30.18 "Hg10 mi
3:56 AM78 °FClear.16 mph71%30.17 "Hg10 mi
2:56 AM78 °FClear.17 mph74%30.17 "Hg10 mi
1:56 AM78 °FPassing clouds.15 mph76%30.18 "Hg10 mi
1:34 AM79 °FPassing clouds.17 mph74%30.19 "Hg10 mi
1:09 AM79 °FPassing clouds.15 mph74%30.20 "Hg10 mi
12:56 AM78 °FPassing clouds.17 mph79%30.19 "Hg10 mi
11:56 PM
Sun, Oct 23
79 °FPassing clouds.17 mph77%30.19 "Hg10 mi
Weather by CustomWeather, © 2016

See weather overviewHow to use our weather pages